C/2019 L3 ( ATLAS )

Japanese version
Home page
Updated on August 11, 2020

---------------------------------------------------------------------

* Profile

Discovery Date June 10, 2019
Magnitude 18.1 mag
Discoverer Asteroid Terrestrial-Impact Last Alert System (ATLAS) search program

* Pictures

* Orbital Elements

Epoch 2022 Jan. 21.0 TT = JDT 2459600.5
T 2022 Jan.  9.61269 TT                                 Rudenko
q   3.5544586            (2000.0)            P               Q
z  -0.0004586      Peri.  171.61073     -0.26052796     -0.66630713
 +/-0.0000019      Node   290.79056     +0.83675864     +0.20517395
e   1.0016301      Incl.   48.36123     +0.48162242     -0.71689501
From 596 observations 2019 June 10-2020 Aug. 3, mean residual 0".4.

* Finding Charts

* Magnitudes Graph

        m1 = 4.2 + 5 log d + 10.0 log r

---------------------------------------------------------------------

The orbital elements are published on M.P.E.C. 2020-P19.
The charts are made with StellaNavigator Ver.10 (AstroArts).
The magnitudes graphs are made with Comet for Windows.

---------------------------------------------------------------------

Copyright(C) Seiichi Yoshida (comet@aerith.net). All rights reserved.